sat.trackr.live / text

‹ back to catalog

GAOFEN-14 01

NORAD 47231 · 2020-092A

PAYLOAD ACTIVE UNKNOWN

§ Identity

Operator
Country
PRC
Launch date
2020-12-06
Launch site
XICLF
Launch vehicle
Mass (kg)
RCS (m²)

External: N2YO · Heavens-Above · Gunter

§ Orbital elements

Epoch: 2026-05-25T04:29:12.975072Z

Period
94.40 min
Inclination
97.4726°
Eccentricity
0.0004777
Mean motion
15.25472799 rev/d
Perigee alt
486.1 km
Apogee alt
492.6 km
Semi-major
6,867.5 km
B*
2.0878e-4
RAAN
215.4389°
Arg perigee
217.6069°
Mean anomaly
142.4835°
Rev number
30,432

§ Raw data

GAOFEN-14 011 47231U 20092A   26145.18695573  .00005212  00000+0  20878-3 0  99992 47231  97.4726 215.4389 0004777 217.6069 142.4835 15.25472799304322

JSON: /api/v1/satellites/47231 · /tle

For live sub-satellite position, see the globe view (requires WebGL).

§ Visibility from observer

Set your observer location to see the next 7 days of passes ≥ 10°. The values pass through the URL so the page stays shareable.

No JS? Fill the form by hand. The geolocation button needs JavaScript.